Needles, CA

10:55 AM PDT on June 23, 2017 (GMT -0700)
Needles

Weather History for KEED - November, 2012

Change the Weather History Date:

Sunday, November 4, 2012

  Actual Average Record
Temperature  
Mean Temperature 72 °F 67 °F  
Max Temperature 88 °F 79 °F 91 °F (2001)
Min Temperature 57 °F 55 °F 33 °F (1956)
Degree Days  
Heating Degree Days 0    
Cooling Degree Days 8    
Growing Degree Days 22 (Base 50)    
Moisture  
Dew Point 26 °F    
Average Humidity 19    
Maximum Humidity 28    
Minimum Humidity 11    
Precipitation  
Precipitation 0.00 in 0.01 in 0.44 in (1888)
Month to date precipitation 0.05  
Year to date precipitation 3.76  
Sea Level Pressure  
Sea Level Pressure 30.03 in    
Wind  
Wind Speed 7 mph (NNW)    
Max Wind Speed 16 mph    
Max Gust Speed 24 mph    
Visibility 10 miles    
Events      
T = Trace of Precipitation, MM = Missing Value Source: NWS Daily Summary

Daily Weather History Graph

Daily Weather History Graph

Search for Another Location

Airport or City:

Trip Planner

Search our weather history database for the weather conditions in past years. The results will help you decide how hot, cold, wet, or windy it might be!

Date:

Astronomy

Nov. 04, 2012 Rise Set
Actual Time 6:02 AM PST 4:41 PM PST
Civil Twilight 5:36 AM PST 5:07 PM PST
Nautical Twilight 5:06 AM PST 5:37 PM PST
Astronomical Twilight 4:36 AM PST 6:07 PM PST
Moon 9:25 PM PST (11/4) 10:46 AM PST (11/4)
Length of Visible Light 11h 31m
Length of Day
10h 38m
Waning Gibbous, 71% of the Moon is Illuminated
Nov 4
Waning Gibbous
Nov 6
Last Quarter
Nov 13
New
Nov 20
First Quarter
Nov 28
Full

Hourly Weather History & Observations

Time (PST) Temp. Dew Point Humidity Pressure Visibility Wind Dir Wind Speed Gust Speed Precip Events Conditions
12:56 AM 63.0 °F 23.0 °F 22% 30.01 in 10.0 mi WSW 6.9 mph - N/A   Clear
1:56 AM 61.0 °F 23.0 °F 23% 30.01 in 10.0 mi Calm Calm - N/A   Clear
1:56 AM 60.1 °F 23.0 °F 24% 30.01 in 10.0 mi WSW 5.8 mph - N/A   Clear
2:56 AM 60.1 °F 24.1 °F 25% 30.00 in 10.0 mi WNW 3.5 mph - N/A   Clear
3:56 AM 59.0 °F 24.1 °F 26% 30.01 in 10.0 mi Calm Calm - N/A   Clear
4:56 AM 57.9 °F 25.0 °F 28% 30.03 in 10.0 mi West 4.6 mph - N/A   Clear
5:56 AM 57.9 °F 25.0 °F 28% 30.06 in 10.0 mi West 4.6 mph - N/A   Clear
6:56 AM 63.0 °F 27.0 °F 26% 30.07 in 10.0 mi WNW 3.5 mph - N/A   Clear
7:56 AM 71.1 °F 28.0 °F 20% 30.09 in 10.0 mi North 8.1 mph - N/A   Clear
8:56 AM 73.9 °F 28.9 °F 19% 30.09 in 10.0 mi North 12.7 mph - N/A   Clear
9:56 AM 78.1 °F 28.9 °F 17% 30.09 in 10.0 mi NNE 12.7 mph - N/A   Clear
10:56 AM 81.0 °F 30.0 °F 16% 30.06 in 10.0 mi NNE 9.2 mph - N/A   Clear
11:56 AM 84.9 °F 28.9 °F 13% 30.03 in 10.0 mi North 9.2 mph - N/A   Clear
12:56 PM 87.1 °F 28.0 °F 12% 30.00 in 10.0 mi NNE 15.0 mph - N/A   Clear
1:56 PM 88.0 °F 27.0 °F 11% 29.99 in 10.0 mi NNE 16.1 mph 24.2 mph N/A   Clear
2:56 PM 87.1 °F 26.1 °F 11% 29.99 in 10.0 mi NNE 16.1 mph - N/A   Clear
3:56 PM 84.9 °F 28.0 °F 13% 29.99 in 10.0 mi NNE 13.8 mph - N/A   Clear
4:56 PM 80.1 °F 28.0 °F 15% 30.00 in 10.0 mi NNW 5.8 mph - N/A   Clear
5:56 PM 79.0 °F 27.0 °F 15% 30.02 in 10.0 mi NW 8.1 mph - N/A   Clear
6:56 PM 75.9 °F 26.1 °F 16% 30.01 in 10.0 mi NW 9.2 mph - N/A   Clear
7:56 PM 70.0 °F 26.1 °F 19% 30.02 in 10.0 mi WSW 8.1 mph - N/A   Clear
8:56 PM 73.0 °F 25.0 °F 17% 30.03 in 10.0 mi NW 9.2 mph - N/A   Clear
9:56 PM 73.9 °F 26.1 °F 17% 30.03 in 10.0 mi NNW 6.9 mph - N/A   Clear
10:56 PM 73.0 °F 26.1 °F 17% 30.03 in 10.0 mi NNW 9.2 mph - N/A   Clear